DW6157 Weather Reports


time (UTC)temp
C
wind
direction
speed
KPH
gust
KPH
rain 1hr
cm
rain 24hr
cm
rain mn
cm
humidity
%
barometer
mb
20260507213051 5 252 0.0 0.0 0.00 0.00 0.00 66 1019.6
20260507211606 5 252 0.0 0.0 0.00 0.00 0.00 66 1019.4
20260507210050 5 252 0.0 0.0 0.00 0.00 0.00 65 1019.3
20260507204550 5 252 0.0 0.0 0.00 0.00 0.00 65 1019.1
20260507203045 6 252 0.0 0.0 0.00 0.00 0.00 62 1019.0
20260507201552 7 252 0.0 0.0 0.00 0.00 0.00 62 1018.9
20260507200054 7 252 0.0 0.0 0.00 0.00 0.00 61 1018.9
20260507194544 7 252 0.0 0.0 0.00 0.00 0.00 57 1018.9
20260507193042 8 252 0.0 0.0 0.00 0.00 0.00 56 1018.6
20260507191548 9 252 0.0 0.0 0.00 0.00 0.00 52 1018.5
20260507190039 9 250 0.0 3.2 0.00 0.00 0.00 49 1018.3
20260507184537 10 249 0.0 4.8 0.00 0.00 0.00 45 1018.2
20260507183036 10 226 1.6 8.0 0.00 0.00 0.00 42 1018.1
20260507181535 11 244 1.6 6.4 0.00 0.00 0.00 40 1018.1
20260507180042 11 226 3.2 6.4 0.00 0.00 0.00 42 1018.0
20260507174536 12 244 3.2 9.7 0.00 0.00 0.00 42 1017.8
20260507173035 13 232 4.8 9.7 0.00 0.00 0.00 44 1017.8
20260507171531 12 285 6.4 12.9 0.00 0.00 0.00 43 1017.7
20260507170031 12 218 3.2 16.1 0.00 0.00 0.00 46 1017.7
20260507164531 12 205 4.8 12.9 0.00 0.00 0.00 47 1017.7
20260507163030 12 193 8.0 16.1 0.00 0.00 0.00 41 1017.7
20260507161529 12 214 6.4 14.5 0.00 0.00 0.00 44 1017.7
20260507160033 13 214 9.7 17.7 0.00 0.00 0.00 45 1017.7
20260507154529 13 236 6.4 14.5 0.00 0.00 0.00 40 1017.7
20260507153031 13 205 6.4 14.5 0.00 0.00 0.00 42 1017.6
20260507151524 13 210 11.3 16.1 0.00 0.00 0.00 43 1017.5
20260507150023 13 229 9.7 17.7 0.00 0.00 0.00 44 1017.5
20260507144522 14 231 9.7 17.7 0.00 0.00 0.00 44 1017.4
20260507143026 15 200 8.0 16.1 0.00 0.00 0.00 40 1017.3
20260507141520 15 205 6.4 14.5 0.00 0.00 0.00 39 1017.4
20260507140026 15 182 3.2 14.5 0.00 0.00 0.00 40 1017.4
20260507134520 15 225 6.4 12.9 0.00 0.00 0.00 40 1017.4
20260507133016 15 183 1.6 9.7 0.00 0.00 0.00 42 1017.4
20260507131514 14 200 6.4 12.9 0.00 0.00 0.00 42 1017.5
20260507130012 14 252 6.4 14.5 0.00 0.00 0.00 43 1017.4
20260507124515 14 210 6.4 16.1 0.00 0.00 0.00 42 1017.4
20260507123018 13 205 8.0 16.1 0.00 0.00 0.00 44 1017.4
20260507121512 13 210 8.0 16.1 0.00 0.00 0.00 44 1017.4
20260507120009 13 235 11.3 17.7 0.00 0.00 0.00 41 1017.4
20260507114509 13 218 9.7 16.1 0.00 0.00 0.00 43 1017.3
20260507113007 13 219 11.3 17.7 0.00 0.00 0.00 42 1017.3
20260507111507 13 200 6.4 16.1 0.00 0.00 0.00 46 1017.4
20260507110012 13 193 8.0 16.1 0.00 0.00 0.00 42 1017.3
20260507104503 13 255 11.3 19.3 0.00 0.00 0.00 38 1017.1
20260507103003 13 215 12.9 19.3 0.00 0.00 0.00 40 1017.0
20260507101503 13 131 0.0 4.8 0.00 0.00 0.00 31 1016.9
20260507094602 12 60 0.0 1.6 0.00 0.00 0.00 32 1016.8
20260507093057 13 340 1.6 9.7 0.00 0.00 0.00 34 1016.8
20260507091602 12 255 0.0 4.8 0.00 0.00 0.00 37 1016.9
20260507090110 11 335 0.0 11.3 0.00 0.00 0.00 36 1016.9
20260507084549 11 283 1.6 11.3 0.00 0.00 0.00 37 1016.9
20260507083047 11 77 3.2 11.3 0.00 0.00 0.00 36 1016.8
20260507081553 11 60 8.0 14.5 0.00 0.00 0.00 38 1016.8
20260507080043 11 56 1.6 14.5 0.00 0.00 0.00 40 1016.6
20260507074542 10 39 0.0 11.3 0.00 0.00 0.00 41 1016.5
20260507073053 10 47 6.4 11.3 0.00 0.00 0.00 42 1016.4
20260507071536 10 56 3.2 11.3 0.00 0.00 0.00 44 1016.3
20260507070041 10 48 3.2 11.3 0.00 0.00 0.00 44 1016.4
20260507064531 9 13 4.8 11.3 0.00 0.00 0.00 44 1016.2
20260507063027 8 42 6.4 14.5 0.00 0.00 0.00 46 1016.1
20260507061531 8 31 1.6 12.9 0.00 0.00 0.00 49 1016.0
20260507060029 7 353 3.2 9.7 0.00 0.00 0.00 51 1015.8
20260507054522 6 311 3.2 8.0 0.00 0.00 0.00 54 1015.8
20260507053016 6 300 3.2 11.3 0.00 0.00 0.00 56 1015.8
20260507051511 5 306 0.0 11.3 0.00 0.00 0.00 58 1015.7
20260507050020 5 340 0.0 9.7 0.00 0.00 0.00 59 1015.6
20260507044519 5 322 0.0 11.3 0.00 0.00 0.00 59 1015.5
20260507043004 4 297 0.0 0.0 0.00 0.00 0.00 63 1015.5
20260507041501 2 297 0.0 0.0 0.00 0.00 0.00 69 1015.4
20260507040100 1 290 0.0 0.0 0.00 0.00 0.00 72 1015.1
20260507034604 1 290 0.0 0.0 0.00 0.00 0.00 71 1015.0
20260507033059 1 290 0.0 0.0 0.00 0.00 0.00 70 1014.9
20260507031555 1 290 0.0 0.0 0.00 0.00 0.00 69 1014.9
20260507030106 1 290 0.0 0.0 0.00 0.00 0.00 69 1014.9
20260507024556 1 290 0.0 0.0 0.00 0.00 0.00 69 1014.7
20260507023052 1 290 0.0 0.0 0.00 0.00 0.00 68 1014.5
20260507021607 1 290 0.0 0.0 0.00 0.00 0.00 68 1014.5
20260507020054 1 291 0.0 0.0 0.00 0.00 0.00 69 1014.4
20260507014608 1 291 0.0 0.0 0.00 0.00 0.00 68 1014.3
20260507013051 1 291 0.0 0.0 0.00 0.00 0.00 68 1014.2
20260507011544 1 291 0.0 3.2 0.00 0.00 0.00 67 1014.1
20260507010047 2 291 0.0 0.0 0.00 0.00 0.00 68 1014.0
20260507004543 2 291 0.0 3.2 0.00 0.00 0.00 66 1013.9
20260507003038 2 293 0.0 3.2 0.00 0.00 0.00 66 1013.9
20260507001536 2 295 0.0 1.6 0.00 0.00 0.00 67 1013.7
20260507000034 2 295 0.0 4.8 0.00 0.00 0.00 65 1013.7
20260506234533 2 316 0.0 1.6 0.00 0.00 0.00 65 1013.5
20260506233030 3 320 0.0 0.0 0.00 0.00 0.00 65 1013.5
20260506231528 3 320 0.0 0.0 0.00 0.00 0.00 66 1013.4
20260506230026 3 320 0.0 0.0 0.00 0.00 0.00 66 1013.3
20260506224525 3 320 0.0 0.0 0.00 0.00 0.00 66 1013.2
20260506223023 3 320 0.0 1.6 0.00 0.00 0.00 65 1013.2
20260506221524 3 324 0.0 1.6 0.00 0.00 0.00 66 1013.0
20260506220026 3 256 0.0 0.0 0.00 0.00 0.00 70 1012.9
20260506214519 3 245 0.0 0.0 0.00 0.00 0.00 71 1012.7